Location: Kawakawa
(35.3830°S, 174.0670°E)
Time: 08:30:42
(UTC+13:00)

Altair - Pass Details

Date: 11 December 2019
Orbit: 1502 x 1682 km, 47.2° (Epoch: 24 January)

Event Time Altitude Azimuth Distance (km) Brightness Sun altitude
Rises 19:11:48 0° 249° (WSW) 4,951 12.2 14.0°
Reaches altitude 10° 19:16:29 10° 267° (W) 3,953 11.6 13.1°
Maximum altitude 19:22:19 17° 302° (WNW) 3,385 10.0 12.0°
Drops below altitude 10° 19:28:06 10° 339° (NNW) 3,890 9.7 10.9°
Sets 19:32:44 0° 357° (N) 4,840 9.9 10.0°
